Location: Newark
(59.4564°N, 26.6917°E)
Time: 18:08:24
(UTC+00:00)

SR - Pass Details

Date: 25 November 2019
Orbit: 573 x 882 km, 66.7° (Epoch: 13 December)

Event Time Altitude Azimuth Distance (km) Brightness Sun altitude
Rises 20:50:27 0° 311° (NW) 3,491 ? -49.4°
Enters shadow 20:52:14 - 304° (NW) 2,911 ? -49.5°
Reaches altitude 10° 20:53:27 10° 298° (WNW) 2,552 - -49.6°
Maximum altitude 20:57:54 22° 249° (WSW) 1,807 - -49.8°
Drops below altitude 10° 21:02:16 10° 200° (SSW) 2,493 - -50.0°
Sets 21:05:11 0° 186° (S) 3,389 - -50.1°
